Regional Weather Roundup
Issued by NWS

Home | Current Version | Previous Version | Graphics & Text | Print | Product List | Glossary On
Versions: 1 2 3 4 5 6 7 8 9 10 11 12 13 14 15 16 17 18 19 20 21 22 23 24 25 26 27 28 29 30 31 32 33 34 35 36 37 38 39 40 41 42 43 44 45 46 47 48 49 50
000
ASUS45 KBOI 300310
RWRID
WEATHER ROUNDUP FOR IDAHO
NATIONAL WEATHER SERVICE BOISE ID
900 PM MDT MON SEP 29 2014

NOTE: "FAIR" INDICATES FEW OR NO CLOUDS BELOW 12000 FEET
WITH NO SIGNIFICANT WEATHER AND/OR OBSTRUCTIONS TO VISIBILITY

IDZ012-014-300400-
SOUTHWEST IDAHO


CITY           SKY/WX    TMP DP  RH WIND       PRES   REMARKS
BOISE          MOCLDY    56  51  84 CALM      29.94F
CALDWELL       MOCLDY    54  45  71 E6        29.96S
MOUNTAIN HOME  DRIZZLE   56  56 100 N2        29.95F
$$

IDZ016-017-300400-
SOUTHCENTRAL IDAHO


CITY           SKY/WX    TMP DP  RH WIND       PRES   REMARKS
BURLEY         CLOUDY    51  48  89 W6        29.96S
JEROME         MOCLDY    51  49  92 CALM      29.97S
TWIN FALLS     PTCLDY    53  48  83 SW8       29.98R
$$

IDZ019>023-300400-
SOUTHEAST IDAHO


CITY           SKY/WX    TMP DP  RH WIND       PRES   REMARKS
IDAHO FALLS    PTCLDY    51  44  77 S8        29.96S
POCATELLO      CLOUDY    51  50  96 SW8       29.98R
REXBURG        PTCLDY    48  44  86 S6        29.95F
$$

IDZ006-010-011-018-031-032-300400-
CENTRAL IDAHO MOUNTAINS


CITY           SKY/WX    TMP DP  RH WIND       PRES   REMARKS
MCCALL         CLOUDY    47  45  93 CALM      29.96S
HAILEY         CLOUDY    46  45  93 SE7       30.00R
STANLEY          N/A     47  42  83 N3        29.99R
SALMON         CLOUDY    54  48  82 CALM      29.88R
CHALLIS        CLOUDY    50  48  93 SW5       29.91F
$$

IDZ002-004-006-007-026-300400-
NORTHERN IDAHO


CITY           SKY/WX    TMP DP  RH WIND       PRES   REMARKS
LEWISTON       MOCLDY    65  51  60 SE8       29.79S
LOWELL           N/A     57  56  96 CALM      29.87S
COEUR D`ALENE  MOCLDY    59  46  63 S10G16    29.77F
MULLAN PASS    CLOUDY    43  41  93 VRB7      29.89S
$$


USA.gov is the U.S. government's official web portal to all federal, state and local government web resources and services.